JCSAT 2A

Last updated on Tue Mar 31 2020 04:58:47 GMT+0000 (Coordinated Universal Time)

1 27399U 02015A 20090.47410642 -.00000170 00000-0 00000-0 0 9996 2 27399 2.7220 85.8557 0004269 340.7356 19.6578 1.00110205 65863
UTC large
Height (km)
Speed (km/s)
/
Latitude / Longitude
Inclination (degrees)
Orbital Period (minutes)
Azimuth
Elevation
Range (km)
Doppler Factor

Next 0 passes for location: London (51.5072 / 0.1276)

Sorry there are no passes over London.